contact:dominique.lefevre@mio.osupytheas.fr, maurice.libes@osupytheas.fr, didier.mallarino@osupytheas.fr
Project:EMSO http://www.emso-fr.org/EMSO-France
Depth: 2436.0 m
Title:EMSO Ligure Ouest : Data MII capteur OXYGEN
DateTime,Latitude,Longitude,Optode-Type,Optode_Serial,Oxygen,Saturation_Oxygen,Temperature
DateTime,Latitude,Longitude,Optode-Type,Optode_Serial,µmol.l-1,%,degC
2017-11-19T00:01:07,42.805,6.029,4330,1995,198.435,60.681,13.285
2017-11-19T00:04:07,42.805,6.029,4330,1995,198.467,60.690,13.285
2017-11-19T00:07:07,42.805,6.029,4330,1995,198.508,60.703,13.285
2017-11-19T00:10:07,42.805,6.029,4330,1995,198.511,60.704,13.285
2017-11-19T00:13:07,42.805,6.029,4330,1995,198.564,60.720,13.285
2017-11-19T00:16:07,42.805,6.029,4330,1995,198.559,60.718,13.285
2017-11-19T00:19:07,42.805,6.029,4330,1995,198.611,60.734,13.285
2017-11-19T00:22:07,42.805,6.029,4330,1995,198.570,60.722,13.285
2017-11-19T00:25:07,42.805,6.029,4330,1995,198.646,60.745,13.285
2017-11-19T00:28:07,42.805,6.029,4330,1995,198.611,60.734,13.285
2017-11-19T00:31:07,42.805,6.029,4330,1995,198.530,60.709,13.285
2017-11-19T00:34:07,42.805,6.029,4330,1995,198.505,60.702,13.285
2017-11-19T00:37:07,42.805,6.029,4330,1995,198.467,60.690,13.285
2017-11-19T00:40:07,42.805,6.029,4330,1995,198.359,60.657,13.285
2017-11-19T00:43:07,42.805,6.029,4330,1995,198.411,60.673,13.285
2017-11-19T00:46:07,42.805,6.029,4330,1995,198.390,60.667,13.285
2017-11-19T00:49:07,42.805,6.029,4330,1995,198.453,60.686,13.285
2017-11-19T00:52:07,42.805,6.029,4330,1995,198.490,60.697,13.285
2017-11-19T00:55:07,42.805,6.029,4330,1995,198.512,60.704,13.285
2017-11-19T00:58:07,42.805,6.029,4330,1995,198.539,60.712,13.285
2017-11-19T01:01:07,42.805,6.029,4330,1995,198.636,60.742,13.285
2017-11-19T01:04:07,42.805,6.029,4330,1995,198.605,60.733,13.285
2017-11-19T01:07:07,42.805,6.029,4330,1995,198.614,60.735,13.285
2017-11-19T01:10:07,42.805,6.029,4330,1995,198.665,60.751,13.285
2017-11-19T01:13:07,42.805,6.029,4330,1995,198.654,60.748,13.286
2017-11-19T01:16:07,42.805,6.029,4330,1995,198.660,60.750,13.286
2017-11-19T01:19:07,42.805,6.029,4330,1995,198.578,60.725,13.285
2017-11-19T01:22:07,42.805,6.029,4330,1995,198.644,60.745,13.286
2017-11-19T01:25:07,42.805,6.029,4330,1995,198.667,60.752,13.286
2017-11-19T01:28:07,42.805,6.029,4330,1995,198.617,60.737,13.286
2017-11-19T01:31:07,42.805,6.029,4330,1995,198.617,60.737,13.286
2017-11-19T01:34:07,42.805,6.029,4330,1995,198.622,60.738,13.286
2017-11-19T01:37:07,42.805,6.029,4330,1995,198.569,60.722,13.286
2017-11-19T01:40:07,42.805,6.029,4330,1995,198.572,60.723,13.286
2017-11-19T01:43:07,42.805,6.029,4330,1995,198.514,60.705,13.286
2017-11-19T01:46:07,42.805,6.029,4330,1995,198.503,60.702,13.286
2017-11-19T01:49:07,42.805,6.029,4330,1995,198.541,60.713,13.286
2017-11-19T01:52:07,42.805,6.029,4330,1995,198.504,60.702,13.286
2017-11-19T01:55:07,42.805,6.029,4330,1995,198.380,60.665,13.286
2017-11-19T01:58:07,42.805,6.029,4330,1995,198.297,60.639,13.286
2017-11-19T02:01:07,42.805,6.029,4330,1995,198.366,60.660,13.286
2017-11-19T02:04:07,42.805,6.029,4330,1995,198.322,60.647,13.286
2017-11-19T02:07:07,42.805,6.029,4330,1995,198.286,60.636,13.286
2017-11-19T02:10:07,42.805,6.029,4330,1995,198.235,60.620,13.286
2017-11-19T02:13:07,42.805,6.029,4330,1995,198.210,60.613,13.286
2017-11-19T02:16:07,42.805,6.029,4330,1995,198.217,60.615,13.286
2017-11-19T02:19:07,42.805,6.029,4330,1995,198.164,60.599,13.286
2017-11-19T02:22:07,42.805,6.029,4330,1995,198.173,60.602,13.286
2017-11-19T02:25:07,42.805,6.029,4330,1995,198.133,60.590,13.286
2017-11-19T02:28:07,42.805,6.029,4330,1995,198.136,60.590,13.286
2017-11-19T02:31:07,42.805,6.029,4330,1995,198.090,60.577,13.287
2017-11-19T02:34:07,42.805,6.029,4330,1995,198.073,60.571,13.286
2017-11-19T02:37:07,42.805,6.029,4330,1995,198.073,60.571,13.286
2017-11-19T02:40:07,42.805,6.029,4330,1995,198.021,60.555,13.286
2017-11-19T02:43:07,42.805,6.029,4330,1995,197.933,60.528,13.286
2017-11-19T02:46:07,42.805,6.029,4330,1995,198.002,60.549,13.286
2017-11-19T02:49:07,42.805,6.029,4330,1995,197.961,60.536,13.286
2017-11-19T02:52:07,42.805,6.029,4330,1995,197.968,60.539,13.286
2017-11-19T02:55:07,42.805,6.029,4330,1995,197.943,60.531,13.286
2017-11-19T02:58:07,42.805,6.029,4330,1995,197.868,60.508,13.286
2017-11-19T03:01:07,42.805,6.029,4330,1995,197.972,60.540,13.286
2017-11-19T03:04:07,42.805,6.029,4330,1995,197.893,60.516,13.286
2017-11-19T03:07:07,42.805,6.029,4330,1995,197.901,60.518,13.286
2017-11-19T03:10:07,42.805,6.029,4330,1995,197.889,60.514,13.286
2017-11-19T03:13:07,42.805,6.029,4330,1995,197.777,60.480,13.286
2017-11-19T03:16:07,42.805,6.029,4330,1995,197.784,60.482,13.286
2017-11-19T03:19:07,42.805,6.029,4330,1995,197.796,60.486,13.286
2017-11-19T03:22:07,42.805,6.029,4330,1995,197.794,60.485,13.286
2017-11-19T03:25:07,42.805,6.029,4330,1995,197.769,60.478,13.286
2017-11-19T03:28:07,42.805,6.029,4330,1995,197.801,60.487,13.286
2017-11-19T03:31:07,42.805,6.029,4330,1995,197.773,60.479,13.286
2017-11-19T03:34:07,42.805,6.029,4330,1995,197.784,60.482,13.286
2017-11-19T03:37:07,42.805,6.029,4330,1995,197.812,60.491,13.286
2017-11-19T03:40:07,42.805,6.029,4330,1995,197.727,60.465,13.286
2017-11-19T03:43:07,42.805,6.029,4330,1995,197.726,60.465,13.286
2017-11-19T03:46:07,42.805,6.029,4330,1995,197.771,60.478,13.286
2017-11-19T03:49:07,42.805,6.029,4330,1995,197.620,60.432,13.286
2017-11-19T03:52:07,42.805,6.029,4330,1995,197.624,60.433,13.286
2017-11-19T03:55:07,42.805,6.029,4330,1995,197.529,60.405,13.286
2017-11-19T03:58:07,42.805,6.029,4330,1995,197.567,60.416,13.286
2017-11-19T04:01:07,42.805,6.029,4330,1995,197.626,60.434,13.286
2017-11-19T04:04:07,42.805,6.029,4330,1995,197.667,60.447,13.286
2017-11-19T04:07:07,42.805,6.029,4330,1995,197.711,60.460,13.286
2017-11-19T04:10:07,42.805,6.029,4330,1995,197.661,60.445,13.286
2017-11-19T04:13:07,42.805,6.029,4330,1995,197.638,60.437,13.286
2017-11-19T04:16:07,42.805,6.029,4330,1995,197.669,60.447,13.286
2017-11-19T04:19:07,42.805,6.029,4330,1995,197.714,60.461,13.286
2017-11-19T04:22:07,42.805,6.029,4330,1995,197.722,60.464,13.286
2017-11-19T04:25:07,42.805,6.029,4330,1995,197.739,60.469,13.286
2017-11-19T04:28:07,42.805,6.029,4330,1995,197.738,60.469,13.286
2017-11-19T04:31:07,42.805,6.029,4330,1995,197.604,60.428,13.286
2017-11-19T04:34:07,42.805,6.029,4330,1995,197.551,60.412,13.286
2017-11-19T04:37:07,42.805,6.029,4330,1995,197.475,60.388,13.286
2017-11-19T04:40:07,42.805,6.029,4330,1995,197.475,60.389,13.287
2017-11-19T04:43:07,42.805,6.029,4330,1995,197.555,60.412,13.286
2017-11-19T04:46:07,42.805,6.029,4330,1995,197.544,60.409,13.286
2017-11-19T04:49:07,42.805,6.029,4330,1995,197.587,60.422,13.286
2017-11-19T04:52:07,42.805,6.029,4330,1995,197.531,60.405,13.286
2017-11-19T04:55:07,42.805,6.029,4330,1995,197.524,60.403,13.286
2017-11-19T04:58:07,42.805,6.029,4330,1995,197.591,60.424,13.286
2017-11-19T05:01:06,42.805,6.029,4330,1995,197.530,60.405,13.286
2017-11-19T05:04:06,42.805,6.029,4330,1995,197.439,60.377,13.286
2017-11-19T05:07:06,42.805,6.029,4330,1995,197.541,60.408,13.286
2017-11-19T05:10:06,42.805,6.029,4330,1995,197.569,60.417,13.286
2017-11-19T05:13:06,42.805,6.029,4330,1995,197.601,60.427,13.286
2017-11-19T05:16:06,42.805,6.029,4330,1995,197.459,60.383,13.286
2017-11-19T05:19:06,42.805,6.029,4330,1995,197.472,60.387,13.286
2017-11-19T05:22:06,42.805,6.029,4330,1995,197.526,60.404,13.287
2017-11-19T05:25:06,42.805,6.029,4330,1995,197.431,60.375,13.287
2017-11-19T05:28:06,42.805,6.029,4330,1995,197.409,60.368,13.286
2017-11-19T05:31:06,42.805,6.029,4330,1995,197.414,60.369,13.286
2017-11-19T05:34:06,42.805,6.029,4330,1995,197.476,60.389,13.286
2017-11-19T05:37:06,42.805,6.029,4330,1995,197.456,60.382,13.286
2017-11-19T05:40:06,42.805,6.029,4330,1995,197.405,60.367,13.286
2017-11-19T05:43:06,42.805,6.029,4330,1995,197.410,60.368,13.286
2017-11-19T05:46:06,42.805,6.029,4330,1995,197.351,60.350,13.286
2017-11-19T05:49:06,42.805,6.029,4330,1995,197.424,60.373,13.286
2017-11-19T05:52:06,42.805,6.029,4330,1995,197.483,60.390,13.286
2017-11-19T05:55:06,42.805,6.029,4330,1995,197.350,60.350,13.286
2017-11-19T05:58:06,42.805,6.029,4330,1995,197.307,60.337,13.287
2017-11-19T06:01:06,42.805,6.029,4330,1995,197.355,60.351,13.286
2017-11-19T06:04:06,42.805,6.029,4330,1995,197.348,60.350,13.287
2017-11-19T06:07:06,42.805,6.029,4330,1995,197.447,60.380,13.286
2017-11-19T06:10:06,42.805,6.029,4330,1995,197.481,60.390,13.286
2017-11-19T06:13:06,42.805,6.029,4330,1995,197.427,60.374,13.286
2017-11-19T06:16:06,42.805,6.029,4330,1995,197.269,60.326,13.287
2017-11-19T06:19:06,42.805,6.029,4330,1995,197.180,60.299,13.287
2017-11-19T06:22:06,42.805,6.029,4330,1995,197.013,60.247,13.286
2017-11-19T06:25:06,42.805,6.029,4330,1995,196.975,60.236,13.287
2017-11-19T06:28:06,42.805,6.029,4330,1995,196.884,60.208,13.286
2017-11-19T06:31:06,42.805,6.029,4330,1995,196.883,60.208,13.287
2017-11-19T06:34:06,42.805,6.029,4330,1995,196.895,60.212,13.287
2017-11-19T06:37:06,42.805,6.029,4330,1995,196.981,60.237,13.286
2017-11-19T06:40:06,42.805,6.029,4330,1995,197.075,60.267,13.287
2017-11-19T06:43:06,42.805,6.029,4330,1995,197.148,60.288,13.286
2017-11-19T06:46:06,42.805,6.029,4330,1995,197.325,60.343,13.287
2017-11-19T06:49:06,42.805,6.029,4330,1995,197.154,60.291,13.287
2017-11-19T06:52:06,42.805,6.029,4330,1995,197.142,60.289,13.288
2017-11-19T06:55:06,42.805,6.029,4330,1995,196.941,60.226,13.287
2017-11-19T06:58:06,42.805,6.029,4330,1995,196.950,60.230,13.288
2017-11-19T07:01:06,42.805,6.029,4330,1995,196.891,60.213,13.289
2017-11-19T07:04:06,42.805,6.029,4330,1995,196.951,60.229,13.287
2017-11-19T07:07:06,42.805,6.029,4330,1995,196.637,60.133,13.287
2017-11-19T07:10:06,42.805,6.029,4330,1995,196.584,60.118,13.288
2017-11-19T07:13:06,42.805,6.029,4330,1995,196.744,60.168,13.289
2017-11-19T07:16:06,42.805,6.029,4330,1995,196.773,60.175,13.287
2017-11-19T07:19:06,42.805,6.029,4330,1995,196.668,60.142,13.287
2017-11-19T07:22:06,42.805,6.029,4330,1995,196.678,60.145,13.287
2017-11-19T07:25:06,42.805,6.029,4330,1995,196.901,60.214,13.287
2017-11-19T07:28:06,42.805,6.029,4330,1995,197.018,60.251,13.288
2017-11-19T07:31:06,42.805,6.029,4330,1995,196.871,60.206,13.288
2017-11-19T07:34:06,42.805,6.029,4330,1995,196.613,60.126,13.287
2017-11-19T07:37:06,42.805,6.029,4330,1995,196.584,60.118,13.288
2017-11-19T07:40:06,42.805,6.029,4330,1995,196.566,60.116,13.290
2017-11-19T07:43:06,42.805,6.029,4330,1995,196.684,60.147,13.286
2017-11-19T07:46:06,42.805,6.029,4330,1995,196.976,60.238,13.288
2017-11-19T07:49:06,42.805,6.029,4330,1995,196.869,60.204,13.287
2017-11-19T07:52:06,42.805,6.029,4330,1995,196.619,60.129,13.288
2017-11-19T07:55:06,42.805,6.029,4330,1995,196.533,60.102,13.288
2017-11-19T07:58:06,42.805,6.029,4330,1995,196.634,60.135,13.289
2017-11-19T08:01:06,42.805,6.029,4330,1995,196.870,60.205,13.288
2017-11-19T08:04:06,42.805,6.029,4330,1995,196.850,60.198,13.287
2017-11-19T08:07:06,42.805,6.029,4330,1995,196.738,60.165,13.288
2017-11-19T08:10:06,42.805,6.029,4330,1995,196.708,60.157,13.289
2017-11-19T08:13:06,42.805,6.029,4330,1995,196.502,60.092,13.288
2017-11-19T08:16:06,42.805,6.029,4330,1995,196.303,60.032,13.287
2017-11-19T08:19:06,42.805,6.029,4330,1995,196.454,60.078,13.288
2017-11-19T08:22:06,42.805,6.029,4330,1995,196.505,60.094,13.288
2017-11-19T08:25:06,42.805,6.029,4330,1995,196.527,60.099,13.287
2017-11-19T08:28:06,42.805,6.029,4330,1995,196.499,60.091,13.287
2017-11-19T08:31:06,42.805,6.029,4330,1995,196.502,60.092,13.287
2017-11-19T08:34:06,42.805,6.029,4330,1995,196.244,60.013,13.287
2017-11-19T08:37:06,42.805,6.029,4330,1995,196.157,59.986,13.287
2017-11-19T08:40:06,42.805,6.029,4330,1995,196.238,60.012,13.288
2017-11-19T08:43:06,42.805,6.029,4330,1995,196.221,60.007,13.288
2017-11-19T08:46:06,42.805,6.029,4330,1995,196.182,59.994,13.287
2017-11-19T08:49:06,42.805,6.029,4330,1995,196.049,59.956,13.289
2017-11-19T08:52:06,42.805,6.029,4330,1995,196.361,60.049,13.287
2017-11-19T08:55:06,42.805,6.029,4330,1995,196.211,60.003,13.287
2017-11-19T08:58:06,42.805,6.029,4330,1995,196.084,59.965,13.288
2017-11-19T09:01:06,42.805,6.029,4330,1995,196.195,59.998,13.287
2017-11-19T09:04:06,42.805,6.029,4330,1995,196.153,59.986,13.287
2017-11-19T09:07:06,42.805,6.029,4330,1995,196.232,60.010,13.287
2017-11-19T09:10:06,42.805,6.029,4330,1995,196.156,59.986,13.287
2017-11-19T09:13:06,42.805,6.029,4330,1995,195.921,59.916,13.288
2017-11-19T09:16:06,42.805,6.029,4330,1995,195.765,59.868,13.288
2017-11-19T09:19:06,42.805,6.029,4330,1995,195.799,59.878,13.288
2017-11-19T09:22:06,42.805,6.029,4330,1995,195.824,59.885,13.287
2017-11-19T09:25:06,42.805,6.029,4330,1995,195.828,59.888,13.288
2017-11-19T09:28:06,42.805,6.029,4330,1995,195.768,59.868,13.287
2017-11-19T09:31:06,42.805,6.029,4330,1995,195.827,59.886,13.288
2017-11-19T09:34:06,42.805,6.029,4330,1995,195.850,59.894,13.288
2017-11-19T09:37:06,42.805,6.029,4330,1995,195.771,59.869,13.288
2017-11-19T09:40:06,42.805,6.029,4330,1995,195.920,59.915,13.288
2017-11-19T09:43:06,42.805,6.029,4330,1995,195.850,59.894,13.288
2017-11-19T09:46:06,42.805,6.029,4330,1995,195.887,59.905,13.288
2017-11-19T09:49:06,42.805,6.029,4330,1995,195.705,59.850,13.289
2017-11-19T09:52:06,42.805,6.029,4330,1995,195.475,59.779,13.288
2017-11-19T09:55:06,42.805,6.029,4330,1995,195.410,59.759,13.288
2017-11-19T09:58:06,42.805,6.029,4330,1995,195.345,59.739,13.288
2017-11-19T10:01:06,42.805,6.029,4330,1995,195.313,59.730,13.288
2017-11-19T10:04:06,42.805,6.029,4330,1995,195.316,59.731,13.288
2017-11-19T10:07:06,42.805,6.029,4330,1995,195.268,59.714,13.287
2017-11-19T10:10:06,42.805,6.029,4330,1995,195.600,59.815,13.287
2017-11-19T10:13:06,42.805,6.029,4330,1995,195.625,59.824,13.287
2017-11-19T10:16:06,42.805,6.029,4330,1995,195.849,59.891,13.286
2017-11-19T10:19:06,42.805,6.029,4330,1995,196.210,60.002,13.287
2017-11-19T10:22:06,42.805,6.029,4330,1995,196.324,60.037,13.287
2017-11-19T10:25:06,42.805,6.029,4330,1995,196.380,60.055,13.287
2017-11-19T10:28:06,42.805,6.029,4330,1995,196.493,60.090,13.288
2017-11-19T10:31:06,42.805,6.029,4330,1995,196.392,60.058,13.287
2017-11-19T10:34:06,42.805,6.029,4330,1995,196.367,60.050,13.287
2017-11-19T10:37:06,42.805,6.029,4330,1995,196.282,60.025,13.287
2017-11-19T10:40:06,42.805,6.029,4330,1995,196.043,59.952,13.287
2017-11-19T10:43:06,42.805,6.029,4330,1995,195.899,59.908,13.288
2017-11-19T10:46:06,42.805,6.029,4330,1995,195.930,59.917,13.287
2017-11-19T10:49:06,42.805,6.029,4330,1995,196.172,59.990,13.287
2017-11-19T10:52:06,42.805,6.029,4330,1995,196.182,59.994,13.287
2017-11-19T10:55:06,42.805,6.029,4330,1995,196.084,59.965,13.288
2017-11-19T10:58:06,42.805,6.029,4330,1995,196.152,59.985,13.287
2017-11-19T11:01:06,42.805,6.029,4330,1995,196.135,59.979,13.287
2017-11-19T11:04:06,42.805,6.029,4330,1995,196.141,59.982,13.288
2017-11-19T11:07:06,42.805,6.029,4330,1995,196.184,59.995,13.287
2017-11-19T11:10:06,42.805,6.029,4330,1995,196.201,60.002,13.288
2017-11-19T11:13:06,42.805,6.029,4330,1995,196.132,59.982,13.289
2017-11-19T11:16:06,42.805,6.029,4330,1995,195.989,59.939,13.290
2017-11-19T11:19:06,42.805,6.029,4330,1995,195.859,59.896,13.288
2017-11-19T11:22:06,42.805,6.029,4330,1995,195.903,59.910,13.288
2017-11-19T11:25:06,42.805,6.029,4330,1995,195.987,59.934,13.287
2017-11-19T11:28:06,42.805,6.029,4330,1995,196.047,59.954,13.288
2017-11-19T11:31:06,42.805,6.029,4330,1995,196.043,59.952,13.288
2017-11-19T11:34:06,42.805,6.029,4330,1995,195.783,59.874,13.289
2017-11-19T11:37:06,42.805,6.029,4330,1995,195.549,59.802,13.288
2017-11-19T11:40:06,42.805,6.029,4330,1995,195.253,59.713,13.290
2017-11-19T11:43:06,42.805,6.029,4330,1995,195.219,59.702,13.289
2017-11-19T11:46:06,42.805,6.029,4330,1995,195.326,59.734,13.289
2017-11-19T11:49:06,42.805,6.029,4330,1995,195.072,59.658,13.290
2017-11-19T11:52:06,42.805,6.029,4330,1995,194.796,59.575,13.291
2017-11-19T11:55:06,42.805,6.029,4330,1995,194.601,59.515,13.290
2017-11-19T11:58:06,42.805,6.029,4330,1995,194.386,59.449,13.290
2017-11-19T12:01:06,42.805,6.029,4330,1995,194.411,59.455,13.289
2017-11-19T12:04:06,42.805,6.029,4330,1995,194.704,59.545,13.289
2017-11-19T12:07:06,42.805,6.029,4330,1995,194.851,59.589,13.289
2017-11-19T12:10:06,42.805,6.029,4330,1995,194.867,59.595,13.290
2017-11-19T12:13:06,42.805,6.029,4330,1995,194.900,59.605,13.289
2017-11-19T12:16:06,42.805,6.029,4330,1995,194.913,59.609,13.289
2017-11-19T12:19:06,42.805,6.029,4330,1995,194.820,59.581,13.290
2017-11-19T12:22:06,42.805,6.029,4330,1995,194.607,59.515,13.289
2017-11-19T12:25:06,42.805,6.029,4330,1995,194.765,59.565,13.290
2017-11-19T12:28:06,42.805,6.029,4330,1995,194.679,59.538,13.290
2017-11-19T12:31:06,42.805,6.029,4330,1995,194.690,59.542,13.290
2017-11-19T12:34:06,42.805,6.029,4330,1995,194.552,59.500,13.291
2017-11-19T12:37:06,42.805,6.029,4330,1995,194.329,59.431,13.290
2017-11-19T12:40:06,42.805,6.029,4330,1995,194.029,59.339,13.290
2017-11-19T12:43:06,42.805,6.029,4330,1995,193.876,59.290,13.288
2017-11-19T12:46:06,42.805,6.029,4330,1995,194.213,59.393,13.288
2017-11-19T12:49:06,42.805,6.029,4330,1995,194.564,59.500,13.288
2017-11-19T12:52:06,42.805,6.029,4330,1995,194.781,59.566,13.288
2017-11-19T12:55:06,42.805,6.029,4330,1995,195.166,59.683,13.287
2017-11-19T12:58:06,42.805,6.029,4330,1995,195.363,59.743,13.286
2017-11-19T13:01:06,42.805,6.029,4330,1995,195.437,59.765,13.286
2017-11-19T13:04:06,42.805,6.029,4330,1995,195.559,59.803,13.286
2017-11-19T13:07:06,42.805,6.029,4330,1995,195.566,59.805,13.287
2017-11-19T13:10:06,42.805,6.029,4330,1995,195.570,59.806,13.286
2017-11-19T13:13:06,42.805,6.029,4330,1995,195.708,59.848,13.286
2017-11-19T13:16:06,42.805,6.029,4330,1995,195.711,59.849,13.286
2017-11-19T13:19:06,42.805,6.029,4330,1995,195.881,59.901,13.286
2017-11-19T13:22:06,42.805,6.029,4330,1995,196.063,59.957,13.286
2017-11-19T13:25:06,42.805,6.029,4330,1995,196.089,59.964,13.286
2017-11-19T13:28:06,42.805,6.029,4330,1995,196.125,59.975,13.286
2017-11-19T13:31:06,42.805,6.029,4330,1995,196.068,59.958,13.286
2017-11-19T13:34:06,42.805,6.029,4330,1995,196.022,59.944,13.286
2017-11-19T13:37:06,42.805,6.029,4330,1995,196.096,59.967,13.286
2017-11-19T13:40:06,42.805,6.029,4330,1995,196.047,59.952,13.286
2017-11-19T13:43:06,42.805,6.029,4330,1995,196.072,59.959,13.286
2017-11-19T13:46:06,42.805,6.029,4330,1995,195.885,59.902,13.286
2017-11-19T13:49:06,42.805,6.029,4330,1995,195.848,59.891,13.287
2017-11-19T13:52:06,42.805,6.029,4330,1995,195.765,59.866,13.286
2017-11-19T13:55:06,42.805,6.029,4330,1995,195.676,59.838,13.286
2017-11-19T13:58:06,42.805,6.029,4330,1995,195.646,59.829,13.286
2017-11-19T14:01:06,42.805,6.029,4330,1995,195.731,59.855,13.286
2017-11-19T14:04:06,42.805,6.029,4330,1995,195.756,59.863,13.286
2017-11-19T14:07:06,42.805,6.029,4330,1995,195.668,59.836,13.286
2017-11-19T14:10:06,42.805,6.029,4330,1995,195.497,59.783,13.286
2017-11-19T14:13:06,42.805,6.029,4330,1995,195.780,59.870,13.286
2017-11-19T14:16:06,42.805,6.029,4330,1995,195.968,59.927,13.286
2017-11-19T14:19:06,42.805,6.029,4330,1995,195.943,59.920,13.286
2017-11-19T14:22:06,42.805,6.029,4330,1995,195.844,59.889,13.286
2017-11-19T14:25:06,42.805,6.029,4330,1995,196.067,59.957,13.286
2017-11-19T14:28:06,42.805,6.029,4330,1995,196.169,59.988,13.286
2017-11-19T14:31:06,42.805,6.029,4330,1995,196.256,60.015,13.286
2017-11-19T14:34:06,42.805,6.029,4330,1995,196.367,60.049,13.286
2017-11-19T14:37:06,42.805,6.029,4330,1995,196.299,60.028,13.286
2017-11-19T14:40:06,42.805,6.029,4330,1995,196.194,59.996,13.286
2017-11-19T14:43:06,42.805,6.029,4330,1995,196.213,60.002,13.286
2017-11-19T14:46:06,42.805,6.029,4330,1995,196.369,60.049,13.286
2017-11-19T14:49:06,42.805,6.029,4330,1995,196.456,60.076,13.286
2017-11-19T14:52:06,42.805,6.029,4330,1995,196.489,60.086,13.286
2017-11-19T14:55:06,42.805,6.029,4330,1995,196.462,60.078,13.286
2017-11-19T14:58:06,42.805,6.029,4330,1995,196.327,60.037,13.286
2017-11-19T15:01:06,42.805,6.029,4330,1995,196.286,60.024,13.286
2017-11-19T15:04:06,42.805,6.029,4330,1995,196.249,60.013,13.286
2017-11-19T15:07:06,42.805,6.029,4330,1995,196.081,59.961,13.286
2017-11-19T15:10:06,42.805,6.029,4330,1995,196.272,60.020,13.286
2017-11-19T15:13:06,42.805,6.029,4330,1995,196.253,60.014,13.286
2017-11-19T15:16:06,42.805,6.029,4330,1995,196.350,60.044,13.286
2017-11-19T15:19:06,42.805,6.029,4330,1995,196.325,60.036,13.286
2017-11-19T15:22:06,42.805,6.029,4330,1995,196.377,60.052,13.286
2017-11-19T15:25:06,42.805,6.029,4330,1995,196.460,60.077,13.286
2017-11-19T15:28:06,42.805,6.029,4330,1995,196.449,60.074,13.286
2017-11-19T15:31:06,42.805,6.029,4330,1995,196.414,60.063,13.286
2017-11-19T15:34:06,42.805,6.029,4330,1995,196.367,60.049,13.286
2017-11-19T15:37:06,42.805,6.029,4330,1995,196.434,60.069,13.286
2017-11-19T15:40:06,42.805,6.029,4330,1995,196.452,60.075,13.286
2017-11-19T15:43:06,42.805,6.029,4330,1995,196.493,60.087,13.286
2017-11-19T15:46:06,42.805,6.029,4330,1995,196.434,60.069,13.286
2017-11-19T15:49:06,42.805,6.029,4330,1995,196.434,60.069,13.286
2017-11-19T15:52:06,42.805,6.029,4330,1995,196.542,60.102,13.286
2017-11-19T15:55:06,42.805,6.029,4330,1995,196.553,60.106,13.286
2017-11-19T15:58:06,42.805,6.029,4330,1995,196.606,60.122,13.286
2017-11-19T16:01:06,42.805,6.029,4330,1995,196.641,60.133,13.286
2017-11-19T16:04:06,42.805,6.029,4330,1995,196.667,60.141,13.286
2017-11-19T16:07:06,42.805,6.029,4330,1995,196.496,60.088,13.286
2017-11-19T16:10:06,42.805,6.029,4330,1995,196.612,60.124,13.286
2017-11-19T16:13:06,42.805,6.029,4330,1995,196.647,60.134,13.286
2017-11-19T16:16:06,42.805,6.029,4330,1995,196.677,60.144,13.286
2017-11-19T16:19:06,42.805,6.029,4330,1995,196.716,60.155,13.286
2017-11-19T16:22:06,42.805,6.029,4330,1995,196.747,60.165,13.286
2017-11-19T16:25:06,42.805,6.029,4330,1995,196.818,60.186,13.286
2017-11-19T16:28:06,42.805,6.029,4330,1995,196.702,60.151,13.286
2017-11-19T16:31:06,42.805,6.029,4330,1995,196.675,60.143,13.286
2017-11-19T16:34:06,42.805,6.029,4330,1995,196.785,60.176,13.285
2017-11-19T16:37:06,42.805,6.029,4330,1995,196.860,60.199,13.285
2017-11-19T16:40:06,42.805,6.029,4330,1995,196.782,60.175,13.285
2017-11-19T16:43:06,42.805,6.029,4330,1995,196.827,60.189,13.286
2017-11-19T16:46:06,42.805,6.029,4330,1995,196.753,60.166,13.285
2017-11-19T16:49:06,42.805,6.029,4330,1995,196.835,60.192,13.285
2017-11-19T16:52:06,42.805,6.029,4330,1995,196.869,60.202,13.285
2017-11-19T16:55:06,42.805,6.029,4330,1995,196.879,60.205,13.286
2017-11-19T16:58:06,42.805,6.029,4330,1995,196.910,60.215,13.285
2017-11-19T17:01:06,42.805,6.029,4330,1995,196.918,60.217,13.285
2017-11-19T17:04:06,42.805,6.029,4330,1995,196.991,60.239,13.286
2017-11-19T17:07:06,42.805,6.029,4330,1995,197.086,60.268,13.285
2017-11-19T17:10:06,42.805,6.029,4330,1995,197.082,60.267,13.286
2017-11-19T17:13:06,42.805,6.029,4330,1995,197.106,60.274,13.285
2017-11-19T17:16:06,42.805,6.029,4330,1995,197.192,60.301,13.286
2017-11-19T17:19:06,42.805,6.029,4330,1995,197.150,60.288,13.286
2017-11-19T17:22:06,42.805,6.029,4330,1995,197.295,60.332,13.285
2017-11-19T17:25:06,42.805,6.029,4330,1995,197.301,60.334,13.285
2017-11-19T17:28:06,42.805,6.029,4330,1995,197.470,60.386,13.285
2017-11-19T17:31:06,42.805,6.029,4330,1995,197.511,60.398,13.286
2017-11-19T17:34:06,42.805,6.029,4330,1995,197.523,60.402,13.285
2017-11-19T17:37:06,42.805,6.029,4330,1995,197.507,60.397,13.286
2017-11-19T17:40:06,42.805,6.029,4330,1995,197.537,60.406,13.285
2017-11-19T17:43:06,42.805,6.029,4330,1995,197.604,60.427,13.286
2017-11-19T17:46:06,42.805,6.029,4330,1995,197.694,60.454,13.286
2017-11-19T17:49:06,42.805,6.029,4330,1995,197.684,60.451,13.285
2017-11-19T17:52:06,42.805,6.029,4330,1995,197.820,60.493,13.286
2017-11-19T17:55:06,42.805,6.029,4330,1995,197.799,60.486,13.285
2017-11-19T17:58:06,42.805,6.029,4330,1995,197.815,60.491,13.286
2017-11-19T18:01:06,42.805,6.029,4330,1995,197.723,60.463,13.286
2017-11-19T18:04:06,42.805,6.029,4330,1995,197.732,60.466,13.286
2017-11-19T18:07:06,42.805,6.029,4330,1995,197.723,60.463,13.285